Zurück zum Katalog

STARLINK-3841

AktivKommunikationVLEO
NORAD 52369·PAYLOAD·🇺🇸 United States

Gestartet Apr 29, 2022 von Cape Canaveral Space Force Station

Loading…

Nächste Überflüge (nächste 24 Stunden)

TLE

AktuellSource: CelesTrak SupGP

Epoche: Sep 14, 2026, 22:06 UTC

1 52369C 22045AQ  26257.92131944  .00019153  00000+0  54770-3 0  2574
2 52369  53.1590  51.5115 0001022  85.5751 310.9680 15.35406027    15

Verfolge STARLINK-3841 in Echtzeit mit AllMySat

Download on the App Store